[[{"header":{"parameterUnit":"m.s-1","parameterCategory":2,"la1":30.2991,"la2":30.254,"lo1":-89.0895,"lo2":-89.0444,"dy":0.0017,"dx":0.0017,"nx":28,"ny":28,"refTime":"2025-08-02T09:00:00:Z","depth":"0","parameterNumber":2,"parameterNumberName":"U-component_of_CURRENTS"},"data":[0,0,0,0,0,0,0,0,0,0,0,0,0,0,0,0,0,0,0,0,0,0,0,0,0,0,0,0,0,0,0,0,0,0,0,0,0,0,0,0,0,0,0,0,0,0,0,0,0,0,0,0,0,0,0,0,0,0,-0.2113,-0.2112,0,-0.1989,-0.1987,-0.1985,-0.194,-0.1941,-0.1941,-0.1942,-0.1754,-0.1749,-0.1743,0,0,0,0,0,0,0,0,0,0,0,0,0,-0.2229,-0.2227,-0.2113,-0.2112,-0.2111,-0.1989,-0.1987,-0.1985,-0.194,-0.1941,-0.1942,-0.1943,-0.1756,-0.1749,-0.1742,0,0,0,0,0,0,0,0,0,0,0,0,0,-0.2146,-0.2227,-0.2114,-0.2076,-0.2072,-0.1989,-0.1987,-0.1984,-0.194,-0.1941,-0.1942,-0.1943,-0.1758,-0.175,-0.1741,-0.1666,0,0,-0.1715,-0.1712,0,0,0,0,0,0,0,0,-0.2151,-0.2141,-0.2083,-0.2079,-0.2074,-0.1984,-0.1959,-0.1876,-0.1939,-0.1986,-0.1942,-0.1944,-0.1826,-0.1812,-0.1783,-0.1658,-0.165,-0.1715,-0.1709,-0.1706,-0.1703,0,0,0,0,0,0,0,-0.2157,-0.2146,-0.206,-0.2082,-0.2076,-0.2037,-0.2027,-0.1942,-0.1898,-0.1982,-0.198,-0.1971,-0.1823,-0.1791,-0.1778,-0.1647,-0.1715,-0.1707,-0.1702,-0.1699,-0.1531,-0.1532,0,0,0,0,0,0,-0.2182,-0.2152,-0.2065,-0.2057,-0.212,-0.2035,-0.2023,-0.2009,-0.19,-0.1886,-0.197,-0.1969,-0.1805,-0.1788,-0.1771,-0.1723,-0.1706,-0.1698,-0.1693,-0.1531,-0.1532,-0.1532,0,0,0,0,0,0,-0.2184,-0.2175,-0.207,-0.2105,-0.2089,-0.2033,-0.2016,-0.2006,-0.1977,-0.1892,-0.1876,-0.1953,-0.1805,-0.1783,-0.1718,-0.1714,-0.1694,-0.1686,-0.153,-0.1531,-0.1532,-0.1596,0,0,0,0,0,0,-0.2188,-0.2176,-0.2167,-0.2106,-0.2088,-0.2025,-0.2015,-0.2003,-0.1971,-0.1969,-0.1872,-0.1856,-0.1804,-0.1732,-0.171,-0.1701,-0.168,-0.1529,-0.153,-0.1532,-0.1593,-0.1599,-0.1604,0,0,0,0,0,-0.2193,-0.2171,-0.2167,-0.2156,-0.208,-0.2025,-0.2011,-0.1973,-0.197,-0.1952,-0.1905,-0.1859,-0.1725,-0.1725,-0.1699,-0.1688,-0.1528,-0.153,-0.1532,-0.159,-0.1598,-0.1604,0,0,0,0,0,0,-0.2203,-0.2163,-0.2158,-0.2122,-0.2084,-0.2019,-0.199,-0.1973,-0.1919,-0.1915,-0.1849,-0.1828,-0.1779,-0.1724,-0.1726,-0.165,-0.1625,-0.1622,-0.1679,-0.1685,-0.169,-0.1706,-0.1672,0,0,0,0,0,-0.2207,-0.2186,-0.2143,-0.2114,-0.2095,-0.2045,-0.2017,-0.1996,-0.1945,-0.1922,-0.186,-0.1803,-0.1761,-0.1719,-0.1665,-0.1599,-0.1606,-0.1584,-0.159,-0.1595,-0.1593,-0.1655,-0.1667,-0.1537,-0.1537,-0.1537,0,0,-0.2199,-0.2177,-0.2162,-0.2116,-0.2078,-0.2035,-0.2029,-0.1986,-0.1955,-0.1906,-0.1838,-0.1813,-0.1753,-0.1703,-0.1674,-0.1654,-0.1631,-0.1597,-0.1601,-0.1597,-0.1658,-0.1671,-0.1683,-0.1538,-0.1538,-0.1538,0,0,-0.2167,-0.2156,-0.2124,-0.2096,-0.2052,-0.2025,-0.2019,-0.1959,-0.1939,-0.1878,-0.1862,-0.1857,-0.1733,-0.1729,-0.1703,-0.1704,-0.1669,-0.167,-0.1689,-0.175,-0.1762,-0.1772,-0.1783,-0.1794,-0.1661,-0.1661,-0.1661,0,-0.2156,-0.2113,-0.2105,-0.2065,-0.2034,-0.2024,-0.1976,-0.1951,-0.1883,-0.1874,-0.1863,-0.1798,-0.1758,-0.1745,-0.1751,-0.1719,-0.1723,-0.1667,-0.176,-0.1771,-0.178,-0.1789,-0.18,-0.1664,-0.1664,-0.1664,-0.1663,0,-0.2096,-0.2063,-0.2038,-0.1992,-0.1965,-0.1921,-0.1899,-0.1879,-0.1863,-0.1847,-0.1837,-0.182,-0.1788,-0.1786,-0.1754,-0.1797,-0.1768,-0.1774,-0.1748,-0.1798,-0.1803,-0.1813,-0.1669,-0.1668,-0.1667,-0.1666,0,0,-0.205,-0.2004,-0.1995,-0.1962,-0.1923,-0.1888,-0.1863,-0.1834,-0.1829,-0.1813,-0.1816,-0.18,-0.1823,-0.18,-0.1798,-0.185,-0.1927,-0.1828,-0.183,-0.1846,-0.202,-0.1945,-0.1948,-0.1947,-0.1949,-0.1951,-0.1991,0,-0.1992,-0.1925,-0.1917,-0.1842,-0.1794,-0.1798,-0.1773,-0.1764,-0.1767,-0.1773,-0.1821,-0.1812,-0.1817,-0.1817,-0.1878,-0.1914,-0.1959,-0.1912,-0.1961,-0.1962,-0.1898,-0.1961,-0.185,-0.1871,-0.2001,-0.2003,-0.2004,0,-0.1921,-0.1885,-0.1817,-0.1766,-0.1747,-0.1716,-0.1701,-0.1679,-0.1717,-0.1724,-0.1771,-0.1798,-0.1865,-0.1877,-0.1984,-0.1947,-0.198,-0.2022,-0.2025,-0.1939,-0.1908,-0.1845,-0.1886,-0.1686,-0.2021,-0.2019,-0.2018,0,-0.188,-0.1808,-0.1759,-0.1737,-0.1689,-0.167,-0.165,-0.1667,-0.166,-0.171,-0.1727,-0.1809,-0.1846,-0.1936,-0.1992,-0.1994,-0.2111,-0.2128,-0.2094,-0.2087,-0.1994,-0.1974,-0.1856,-0.2219,-0.2219,-0.2219,-0.2219,0,-0.1813,-0.1759,-0.1738,-0.1703,-0.1643,-0.163,-0.1595,-0.1598,-0.163,-0.1633,-0.1703,-0.1734,-0.1866,-0.1935,-0.2002,-0.2062,-0.2116,-0.2106,-0.2107,-0.2008,-0.199,-0.1812,-0.1831,-0.222,-0.222,-0.222,-0.222,0,-0.1745,-0.1744,-0.1674,-0.1634,-0.1619,-0.1576,-0.1543,-0.1528,-0.1565,-0.1586,-0.1601,-0.169,-0.1766,-0.1869,-0.2002,-0.205,-0.2076,-0.2131,-0.1973,-0.1956,-0.1748,-0.178,-0.1882,-0.1833,-0.2126,-0.2124,-0.2123,0,-0.1686,-0.1653,-0.1621,-0.1591,-0.1564,-0.1511,-0.1479,-0.1491,-0.1489,-0.155,-0.1563,-0.1638,-0.1671,-0.1815,-0.1909,-0.2002,-0.1988,-0.1957,-0.1962,-0.1718,-0.1756,-0.185,-0.1808,-0.1858,-0.1854,-0.1852,-0.185,0,-0.1551,-0.1573,-0.1535,-0.1491,-0.1454,-0.1407,-0.1374,-0.1371,-0.1401,-0.143,-0.1469,-0.1504,-0.1615,-0.1664,-0.1765,-0.1819,-0.1859,-0.1904,-0.1715,-0.1593,-0.1632,-0.1587,-0.181,-0.1826,-0.1828,-0.183,-0.1831,-0.1832,-0.1438,-0.1408,-0.1393,-0.134,-0.1326,-0.129,-0.1226,-0.1239,-0.123,-0.1251,-0.1354,-0.1376,-0.1454,-0.1578,-0.1545,-0.144,-0.1694,-0.1445,-0.152,-0.1645,-0.1555,-0.1696,-0.1673,-0.1674,-0.1676,-0.1677,-0.1678,0,-0.1217,-0.1239,-0.122,-0.1173,-0.1138,-0.1166,-0.1133,-0.1076,-0.1048,-0.1118,-0.1151,-0.1228,-0.1192,-0.1181,-0.1158,-0.1065,-0.1088,-0.1033,-0.109,-0.108,-0.1207,-0.1134,-0.0914,-0.0914,-0.0914,-0.0914,-0.0914,-0.0915,-0.109,-0.1029,-0.1055,-0.0973,-0.0971,-0.0884,-0.0853,-0.0822,-0.0838,-0.0849,-0.091,-0.0987,-0.0951,-0.0967,-0.072,-0.0685,-0.0642,-0.075,-0.0765,-0.0731,-0.0772,-0.081,-0.0731,-0.0431,-0.0431,-0.0548,-0.0549,-0.055]},{"header":{"parameterUnit":"m.s-1","parameterCategory":2,"la1":30.2991,"la2":30.254,"lo1":-89.0895,"lo2":-89.0444,"dy":0.0017,"dx":0.0017,"nx":28,"ny":28,"refTime":"2025-08-02T09:00:00:Z","depth":"0","parameterNumber":3,"parameterNumberName":"V-component_of_CURRENTS"},"data":[0,0,0,0,0,0,0,0,0,0,0,0,0,0,0,0,0,0,0,0,0,0,0,0,0,0,0,0,0,0,0,0,0,0,0,0,0,0,0,0,0,0,0,0,0,0,0,0,0,0,0,0,0,0,0,0,0,0,0.002,0.002,0,0.0107,0.0108,0.0109,0.0152,0.0152,0.0152,0.0152,0.023,0.0232,0.0234,0,0,0,0,0,0,0,0,0,0,0,0,0,-0.0151,-0.0148,0.0019,0.0021,0.0022,0.0107,0.0108,0.0109,0.0152,0.0152,0.0152,0.0152,0.0229,0.0231,0.0234,0,0,0,0,0,0,0,0,0,0,0,0,0,-0.0072,-0.0147,0.0019,0.0054,0.0058,0.0106,0.0108,0.0109,0.0152,0.0152,0.0152,0.0152,0.0228,0.0231,0.0234,0.0251,0,0,0.0243,0.0245,0,0,0,0,0,0,0,0,-0.0076,-0.0066,0.0048,0.0052,0.0056,0.0119,0.0076,0.0156,0.0152,0.0116,0.0152,0.0152,0.0192,0.0198,0.0214,0.0255,0.0258,0.0244,0.0246,0.0247,0.0248,0,0,0,0,0,0,0,-0.0082,-0.0069,0.0054,0.0049,0.0054,0.0051,0.0063,0.0091,0.0152,0.0119,0.0123,0.0133,0.0194,0.0211,0.0216,0.0259,0.0244,0.0246,0.0248,0.0249,0.0232,0.023,0,0,0,0,0,0,-0.0089,-0.0074,0.0051,0.0056,-0.0011,0.0054,0.0067,0.0098,0.0152,0.016,0.0133,0.0135,0.0206,0.0212,0.0219,0.0158,0.0247,0.025,0.0251,0.0235,0.0232,0.023,0,0,0,0,0,0,-0.0092,-0.0078,0.0047,-0.0008,0.0007,0.0057,0.0092,0.01,0.0118,0.0163,0.0171,0.0142,0.0206,0.0215,0.0221,0.0164,0.0251,0.0254,0.0237,0.0234,0.0231,0.009,0,0,0,0,0,0,-0.0097,-0.0079,-0.0064,-0.0008,0.0011,0.0061,0.0092,0.0102,0.0124,0.0128,0.0173,0.0181,0.0207,0.0216,0.0224,0.017,0.0256,0.024,0.0236,0.0232,0.0098,0.0082,0.0069,0,0,0,0,0,-0.0103,-0.0082,-0.0063,-0.0049,0.0033,0.006,0.0068,0.0103,0.0124,0.0121,0.0144,0.0179,0.0194,0.0217,0.0227,0.0173,0.0242,0.0237,0.0232,0.0104,0.0085,0.007,0,0,0,0,0,0,-0.0151,-0.0073,-0.0052,-0.0008,0.0015,0.0067,0.0076,0.0101,0.012,0.0126,0.0166,0.0174,0.0149,0.0188,0.0213,0.0153,0.0218,0.0215,0.0117,0.01,0.0086,0.0055,0.0259,0,0,0,0,0,-0.0153,-0.0112,-0.006,-0.0029,-0.0016,0.0029,0.0046,0.0068,0.0096,0.0107,0.0134,0.015,0.0137,0.0142,0.015,0.0136,0.0144,0.0103,0.0088,0.0076,0.0056,0.0031,0.0012,0.0213,0.0213,0.0213,0,0,-0.0164,-0.0116,-0.0093,-0.0037,-0.001,-0.0013,0.0039,0.0061,0.0036,0.0112,0.009,0.0108,0.0122,0.0086,0.0079,0.0113,0.0016,0.0069,0.0059,0.0045,0.0024,0.0004,-0.0013,0.0209,0.021,0.0211,0,0,-0.0173,-0.0123,-0.01,-0.0086,-0.0048,-0.0036,-0.0034,0.0009,0.0003,-0.0005,0.0015,-0.0011,0.0019,-0.0017,-0.0026,-0.011,-0.0059,-0.0091,-0.0185,-0.021,-0.0227,-0.0241,-0.0286,-0.0304,-0.0097,-0.0097,-0.0097,0,-0.0198,-0.0153,-0.0098,-0.009,-0.0093,-0.0055,-0.0069,-0.0077,-0.0047,-0.0071,-0.0032,-0.0065,-0.0053,-0.0142,-0.0178,-0.015,-0.0139,-0.0123,-0.023,-0.0244,-0.0256,-0.0298,-0.0316,-0.0104,-0.0103,-0.0103,-0.0102,0,-0.0194,-0.0175,-0.0168,-0.0149,-0.0155,-0.0156,-0.0165,-0.0186,-0.0182,-0.0188,-0.0251,-0.0243,-0.0265,-0.0278,-0.0251,-0.0349,-0.0307,-0.0247,-0.0189,-0.0285,-0.0323,-0.0339,-0.0115,-0.0112,-0.011,-0.0108,0,0,-0.0225,-0.0173,-0.0177,-0.0186,-0.0186,-0.0193,-0.0262,-0.0312,-0.0361,-0.0366,-0.0435,-0.0489,-0.0465,-0.0476,-0.0458,-0.0488,-0.0585,-0.0402,-0.0399,-0.0453,-0.0642,-0.0634,-0.0649,-0.0518,-0.052,-0.0523,-0.0644,0,-0.0253,-0.0241,-0.0222,-0.0268,-0.0278,-0.0294,-0.0363,-0.0412,-0.0443,-0.0501,-0.0543,-0.0583,-0.0549,-0.0553,-0.0592,-0.0568,-0.0626,-0.0559,-0.0536,-0.0537,-0.0521,-0.0667,-0.0613,-0.0716,-0.0659,-0.0662,-0.0663,0,-0.0273,-0.0265,-0.0284,-0.0327,-0.0336,-0.0373,-0.0475,-0.0527,-0.0617,-0.0636,-0.0697,-0.0693,-0.0781,-0.0706,-0.0778,-0.0718,-0.0709,-0.0696,-0.0698,-0.0651,-0.0557,-0.0604,-0.0746,-0.0387,-0.0687,-0.0685,-0.0683,0,-0.0318,-0.0329,-0.0345,-0.0354,-0.039,-0.0436,-0.048,-0.0567,-0.0626,-0.0715,-0.0747,-0.0827,-0.0855,-0.0867,-0.0868,-0.0802,-0.0927,-0.0828,-0.084,-0.0839,-0.0774,-0.0762,-0.0572,-0.0906,-0.0906,-0.0906,-0.0906,0,-0.0356,-0.0381,-0.0362,-0.0373,-0.044,-0.0462,-0.0553,-0.0608,-0.0694,-0.0773,-0.0806,-0.088,-0.0882,-0.0946,-0.0928,-0.0963,-0.0988,-0.0908,-0.0885,-0.0824,-0.0816,-0.0481,-0.0296,-0.091,-0.0909,-0.0909,-0.0908,0,-0.0393,-0.0375,-0.0399,-0.0427,-0.0448,-0.0494,-0.0578,-0.0645,-0.0713,-0.0817,-0.0845,-0.0932,-0.1025,-0.1066,-0.1103,-0.1043,-0.0922,-0.1079,-0.1027,-0.0996,-0.0619,-0.0448,-0.0443,-0.0302,-0.1093,-0.1094,-0.1094,0,-0.0403,-0.0405,-0.0421,-0.0439,-0.0448,-0.0514,-0.057,-0.0652,-0.0721,-0.0856,-0.0913,-0.1034,-0.1148,-0.1237,-0.1215,-0.1253,-0.0995,-0.1123,-0.1,-0.0636,-0.0427,-0.0406,-0.0282,-0.0982,-0.0982,-0.0982,-0.0982,0,-0.0425,-0.0413,-0.0418,-0.0444,-0.0489,-0.0553,-0.0633,-0.0697,-0.0805,-0.09,-0.1041,-0.1142,-0.127,-0.1332,-0.136,-0.1288,-0.0856,-0.1115,-0.0744,-0.0354,-0.0317,-0.0154,-0.0864,-0.0979,-0.0979,-0.098,-0.098,-0.098,-0.043,-0.0432,-0.0418,-0.0452,-0.0501,-0.0578,-0.0639,-0.0745,-0.0868,-0.1042,-0.1128,-0.1323,-0.1308,-0.1378,-0.1248,-0.0808,-0.0885,-0.0585,-0.0426,-0.0455,-0.0255,-0.0981,-0.1049,-0.105,-0.105,-0.1051,-0.1051,0,-0.043,-0.0418,-0.0436,-0.0468,-0.0513,-0.0548,-0.0669,-0.0742,-0.0887,-0.1121,-0.1275,-0.1385,-0.1255,-0.106,-0.0593,-0.0166,-0.0057,0.0123,0.0258,0.0341,-0.0292,-0.0206,-0.0087,-0.0087,-0.0087,-0.0088,-0.0088,-0.0088,-0.0425,-0.0421,-0.0423,-0.0463,-0.0493,-0.0571,-0.0637,-0.0762,-0.0937,-0.1195,-0.1382,-0.1533,-0.0981,-0.0156,0.0581,0.0704,0.1077,0.098,0.1181,0.0921,0.0871,0.0823,0.0952,0.1313,0.1314,0.1752,0.1758,0.1762]}],[{"header":{"parameterUnit":"m.s-1","parameterCategory":2,"la1":30.2991,"la2":30.254,"lo1":-89.0895,"lo2":-89.0444,"dy":0.0017,"dx":0.0017,"nx":28,"ny":28,"refTime":"2025-08-02T09:00:00:Z","depth":"2","parameterNumber":2,"parameterNumberName":"U-component_of_CURRENTS"},"data":[0,0,0,0,0,0,0,0,0,0,0,0,0,0,0,0,0,0,0,0,0,0,0,0,0,0,0,0,0,0,0,0,0,0,0,0,0,0,0,0,0,0,0,0,0,0,0,0,0,0,0,0,0,0,0,0,0,0,-0.276,-0.2764,0,-0.2972,-0.2973,-0.2973,-0.2936,-0.2934,-0.2932,-0.293,-0.2829,-0.2828,-0.2827,0,0,0,0,0,0,0,0,0,0,0,0,0,-0.2261,-0.2269,-0.276,-0.2764,-0.2769,-0.2972,-0.2973,-0.2974,-0.2936,-0.2934,-0.2931,-0.2929,-0.2829,-0.2828,-0.2827,0,0,0,0,0,0,0,0,0,0,0,0,0,-0.2458,-0.2272,-0.2759,-0.2788,-0.2795,-0.2971,-0.2973,-0.2974,-0.2937,-0.2934,-0.2931,-0.2928,-0.2829,-0.2828,-0.2827,-0.2878,0,0,-0.2823,-0.2822,0,0,0,0,0,0,0,0,-0.2447,-0.2473,-0.278,-0.2787,-0.2794,-0.2941,-0.2761,-0.2933,-0.2938,-0.2863,-0.293,-0.2927,-0.2852,-0.2849,-0.2872,-0.2873,-0.2869,-0.2823,-0.2822,-0.2821,-0.2821,0,0,0,0,0,0,0,-0.2433,-0.2464,-0.2824,-0.2785,-0.2794,-0.2772,-0.2794,-0.2793,-0.285,-0.2869,-0.2871,-0.2927,-0.285,-0.2874,-0.2869,-0.2868,-0.2823,-0.2821,-0.2821,-0.282,-0.2788,-0.2788,0,0,0,0,0,0,-0.2454,-0.2453,-0.2818,-0.2832,-0.2631,-0.2785,-0.2809,-0.2881,-0.2858,-0.2859,-0.2929,-0.2925,-0.2877,-0.2871,-0.2865,-0.2816,-0.2821,-0.282,-0.2819,-0.2788,-0.2788,-0.2788,0,0,0,0,0,0,-0.2443,-0.2485,-0.281,-0.266,-0.2702,-0.2799,-0.2878,-0.2888,-0.2906,-0.291,-0.2901,-0.2939,-0.2875,-0.2867,-0.285,-0.2815,-0.2819,-0.2818,-0.2788,-0.2788,-0.2788,-0.2786,0,0,0,0,0,0,-0.2428,-0.248,-0.2546,-0.2663,-0.2713,-0.2908,-0.2884,-0.2895,-0.2955,-0.2949,-0.2917,-0.2905,-0.2872,-0.2852,-0.2849,-0.2813,-0.2817,-0.2788,-0.2788,-0.2788,-0.2786,-0.2786,-0.2785,0,0,0,0,0,-0.2409,-0.2524,-0.2548,-0.2594,-0.2799,-0.2912,-0.2932,-0.2975,-0.2958,-0.2974,-0.2943,-0.2905,-0.2847,-0.2853,-0.2848,-0.2811,-0.2788,-0.2788,-0.2788,-0.2786,-0.2786,-0.2785,0,0,0,0,0,0,-0.2359,-0.2537,-0.2564,-0.2732,-0.281,-0.2912,-0.2972,-0.2985,-0.2983,-0.2963,-0.2926,-0.2913,-0.2874,-0.2863,-0.287,-0.2802,-0.2804,-0.2803,-0.2804,-0.2803,-0.2803,-0.2771,-0.2816,0,0,0,0,0,-0.2383,-0.2502,-0.2634,-0.2764,-0.2808,-0.2881,-0.2939,-0.2956,-0.2985,-0.2983,-0.2953,-0.2916,-0.2878,-0.2857,-0.2829,-0.2818,-0.2782,-0.2785,-0.2785,-0.2785,-0.2757,-0.2701,-0.2692,-0.2787,-0.2787,-0.2787,0,0,-0.2405,-0.2522,-0.2591,-0.2759,-0.2824,-0.2859,-0.2902,-0.2989,-0.297,-0.297,-0.2926,-0.2917,-0.2877,-0.2841,-0.2821,-0.2822,-0.2743,-0.2784,-0.2784,-0.2756,-0.27,-0.269,-0.2682,-0.2787,-0.2787,-0.2787,0,0,-0.2472,-0.2601,-0.2688,-0.274,-0.2855,-0.2883,-0.2902,-0.2979,-0.2965,-0.2962,-0.2928,-0.2903,-0.2872,-0.2821,-0.2794,-0.2783,-0.2743,-0.278,-0.275,-0.2698,-0.2688,-0.268,-0.2637,-0.2624,-0.278,-0.278,-0.278,0,-0.2488,-0.2604,-0.2726,-0.278,-0.2808,-0.2876,-0.289,-0.2903,-0.2944,-0.2922,-0.2932,-0.2871,-0.2844,-0.2772,-0.2764,-0.2773,-0.2753,-0.2755,-0.2695,-0.2685,-0.2677,-0.2634,-0.2621,-0.278,-0.278,-0.278,-0.278,0,-0.257,-0.2641,-0.2695,-0.276,-0.2799,-0.2841,-0.2863,-0.2862,-0.2855,-0.2854,-0.2809,-0.2802,-0.2756,-0.2752,-0.2753,-0.268,-0.269,-0.2701,-0.2692,-0.2666,-0.2624,-0.261,-0.278,-0.278,-0.278,-0.278,0,0,-0.2608,-0.273,-0.2729,-0.2718,-0.2776,-0.2802,-0.2773,-0.2764,-0.2726,-0.2743,-0.2689,-0.2654,-0.2673,-0.2644,-0.2651,-0.2619,-0.2554,-0.2642,-0.264,-0.2592,-0.2448,-0.2317,-0.2289,-0.2567,-0.2564,-0.2562,-0.2448,0,-0.2603,-0.2682,-0.2726,-0.2701,-0.2715,-0.2724,-0.2684,-0.2672,-0.2666,-0.2632,-0.2623,-0.2583,-0.2623,-0.2614,-0.2586,-0.2566,-0.2515,-0.2584,-0.2485,-0.2481,-0.236,-0.2266,-0.2104,-0.1976,-0.2434,-0.2432,-0.243,0,-0.2607,-0.2656,-0.2672,-0.2643,-0.2645,-0.262,-0.2555,-0.2538,-0.2511,-0.2507,-0.2493,-0.2501,-0.2455,-0.25,-0.2424,-0.2477,-0.2445,-0.2434,-0.243,-0.2287,-0.232,-0.2073,-0.1933,-0.2406,-0.2408,-0.2409,-0.2411,0,-0.2532,-0.2571,-0.2574,-0.2573,-0.2582,-0.2543,-0.2522,-0.2497,-0.2457,-0.2436,-0.2407,-0.2388,-0.2354,-0.2335,-0.2312,-0.237,-0.2224,-0.2295,-0.2137,-0.2129,-0.1953,-0.1933,-0.2194,-0.2194,-0.2195,-0.2195,-0.2195,0,-0.2491,-0.2458,-0.2538,-0.2531,-0.2457,-0.249,-0.2403,-0.2389,-0.2368,-0.2308,-0.2341,-0.2274,-0.2309,-0.2246,-0.2257,-0.2124,-0.2163,-0.2081,-0.2064,-0.195,-0.1932,-0.2281,-0.2292,-0.2191,-0.2192,-0.2193,-0.2193,0,-0.2381,-0.2461,-0.2429,-0.2446,-0.2429,-0.2373,-0.2316,-0.227,-0.227,-0.2197,-0.2182,-0.2156,-0.2067,-0.2071,-0.2014,-0.2001,-0.1929,-0.1866,-0.1731,-0.1698,-0.1899,-0.1913,-0.1691,-0.1685,-0.1679,-0.1675,-0.1671,0,-0.2317,-0.2322,-0.2342,-0.2311,-0.2306,-0.2244,-0.22,-0.2206,-0.217,-0.2104,-0.2057,-0.1959,-0.1852,-0.1709,-0.1653,-0.158,-0.172,-0.1403,-0.146,-0.1827,-0.1835,-0.1857,-0.1876,-0.125,-0.1243,-0.1238,-0.1233,0,-0.2147,-0.2188,-0.2186,-0.2167,-0.2123,-0.2068,-0.2022,-0.1995,-0.2005,-0.1932,-0.1827,-0.1736,-0.1557,-0.1379,-0.1267,-0.1223,-0.1415,-0.1283,-0.1649,-0.14,-0.14,-0.1413,-0.1448,-0.1183,-0.1188,-0.1192,-0.1195,-0.1197,-0.1972,-0.1954,-0.2001,-0.1961,-0.193,-0.1906,-0.1837,-0.1827,-0.1757,-0.1684,-0.1657,-0.1489,-0.1357,-0.1106,-0.0977,-0.0888,-0.1018,-0.1014,-0.1036,-0.1063,-0.1029,-0.1019,-0.0726,-0.0728,-0.073,-0.0732,-0.0733,0,-0.1751,-0.1791,-0.1772,-0.1757,-0.1711,-0.1746,-0.1708,-0.1638,-0.1547,-0.1552,-0.1453,-0.1171,-0.0975,-0.0865,-0.0627,-0.0542,-0.059,-0.0526,-0.0616,-0.0661,-0.0703,-0.0658,-0.0253,-0.0252,-0.0251,-0.0251,0,0,-0.1631,-0.1606,-0.1664,-0.1565,-0.1544,-0.1455,-0.1433,-0.1336,-0.1318,-0.1213,-0.1143,-0.1177,-0.0982,-0.0747,-0.0568,-0.0405,-0.0582,-0.0368,-0.0746,-0.0912,-0.0956,-0.0949,-0.0923,0,0,0,0,0]},{"header":{"parameterUnit":"m.s-1","parameterCategory":2,"la1":30.2991,"la2":30.254,"lo1":-89.0895,"lo2":-89.0444,"dy":0.0017,"dx":0.0017,"nx":28,"ny":28,"refTime":"2025-08-02T09:00:00:Z","depth":"2","parameterNumber":3,"parameterNumberName":"V-component_of_CURRENTS"},"data":[0,0,0,0,0,0,0,0,0,0,0,0,0,0,0,0,0,0,0,0,0,0,0,0,0,0,0,0,0,0,0,0,0,0,0,0,0,0,0,0,0,0,0,0,0,0,0,0,0,0,0,0,0,0,0,0,0,0,0.0094,0.0097,0,0.0348,0.035,0.0353,0.0388,0.0386,0.0384,0.0382,0.0506,0.0511,0.0516,0,0,0,0,0,0,0,0,0,0,0,0,0,-0.0108,-0.0106,0.0094,0.0097,0.0101,0.0347,0.0351,0.0354,0.0388,0.0386,0.0383,0.0381,0.0504,0.051,0.0516,0,0,0,0,0,0,0,0,0,0,0,0,0,0.0042,-0.0106,0.0093,0.0151,0.0158,0.0347,0.0351,0.0355,0.0389,0.0386,0.0383,0.038,0.0502,0.0509,0.0517,0.0627,0,0,0.0541,0.0544,0,0,0,0,0,0,0,0,0.0033,0.0049,0.0139,0.0147,0.0156,0.0336,0.0325,0.044,0.039,0.0298,0.0382,0.0378,0.0442,0.0454,0.0505,0.0632,0.0638,0.0542,0.0546,0.055,0.0552,0,0,0,0,0,0,0,0.0022,0.004,0.0191,0.0143,0.0154,0.0251,0.0266,0.0349,0.0378,0.0305,0.0309,0.0345,0.0444,0.0498,0.0508,0.0639,0.0541,0.0548,0.0553,0.0556,0.0838,0.0841,0,0,0,0,0,0,-0.0011,0.0029,0.0183,0.0199,0.009,0.0256,0.0273,0.0279,0.0381,0.0395,0.0347,0.0345,0.0486,0.0499,0.0513,0.0581,0.055,0.0557,0.0561,0.0836,0.0839,0.0842,0,0,0,0,0,0,-0.0017,-0.0001,0.0173,0.0124,0.0153,0.0261,0.0269,0.0285,0.0323,0.0414,0.0425,0.0365,0.0484,0.0502,0.0591,0.0588,0.056,0.0568,0.0832,0.0837,0.0841,0.0761,0,0,0,0,0,0,-0.0024,-0.0005,0.0005,0.0121,0.0155,0.0275,0.0273,0.0293,0.0353,0.0352,0.0435,0.0444,0.0483,0.058,0.0599,0.0598,0.0574,0.0829,0.0834,0.0839,0.076,0.0762,0.0763,0,0,0,0,0,-0.0033,-0.0022,0.0003,0.0023,0.0157,0.0277,0.0304,0.037,0.0356,0.0388,0.0445,0.044,0.0626,0.0589,0.0611,0.0612,0.0826,0.0833,0.0839,0.0759,0.0761,0.0763,0,0,0,0,0,0,-0.0086,-0.0013,0.0015,0.0053,0.0157,0.0284,0.0323,0.0368,0.0446,0.0429,0.049,0.0507,0.0576,0.0632,0.059,0.0717,0.0722,0.0733,0.0653,0.0656,0.0658,0.0645,0.058,0,0,0,0,0,-0.0094,-0.0084,0.003,0.0067,0.0104,0.0213,0.0272,0.0319,0.0403,0.0432,0.0491,0.056,0.0631,0.0668,0.0742,0.0828,0.085,0.0845,0.0847,0.0847,0.0858,0.0909,0.0914,0.0863,0.0863,0.0863,0,0,-0.0099,-0.0056,-0.0045,0.0056,0.0128,0.0196,0.0238,0.0317,0.0371,0.0435,0.0506,0.0567,0.0658,0.0737,0.0773,0.0775,0.0869,0.0855,0.0854,0.0866,0.0916,0.092,0.0924,0.0867,0.0867,0.0866,0,0,-0.0107,-0.0075,-0.0069,0.0008,0.0115,0.0187,0.0201,0.0322,0.0362,0.0466,0.0506,0.0586,0.0699,0.0769,0.0815,0.0889,0.0873,0.0892,0.089,0.0938,0.0941,0.0944,0.0935,0.0938,0.0895,0.0895,0.0895,0,-0.011,-0.0089,-0.0034,0.0008,0.0068,0.0167,0.0214,0.0291,0.0429,0.0469,0.047,0.0654,0.0721,0.0824,0.0842,0.0887,0.0884,0.0856,0.0933,0.0937,0.0941,0.0932,0.0936,0.0892,0.0892,0.0893,0.0893,0,-0.0112,-0.0075,-0.0061,0.0003,0.0078,0.0139,0.0245,0.0307,0.0358,0.0441,0.0547,0.0661,0.0764,0.0796,0.084,0.0912,0.0885,0.0914,0.0904,0.094,0.093,0.0935,0.0887,0.0889,0.0889,0.089,0,0,-0.0173,-0.0084,-0.0078,-0.004,0.0076,0.0139,0.021,0.0322,0.0361,0.0482,0.0539,0.0691,0.0736,0.0798,0.0861,0.0918,0.0936,0.0916,0.092,0.0867,0.098,0.0995,0.1002,0.095,0.0951,0.0953,0.0942,0,-0.0184,-0.0134,-0.008,-0.0005,0.0037,0.0136,0.0199,0.0306,0.039,0.0468,0.0588,0.0672,0.0739,0.0772,0.0842,0.0905,0.0954,0.0933,0.0992,0.0994,0.097,0.1013,0.0944,0.0933,0.0947,0.0948,0.0949,0,-0.0209,-0.0166,-0.0119,-0.0015,0.0008,0.0056,0.0157,0.0234,0.036,0.0421,0.0526,0.061,0.0719,0.0765,0.0895,0.086,0.0922,0.0978,0.0979,0.1032,0.1023,0.0917,0.0943,0.0959,0.0958,0.0957,0.0957,0,-0.0292,-0.0193,-0.0166,-0.0125,0.0,0.0022,0.0081,0.0204,0.0267,0.0377,0.0416,0.056,0.0607,0.0723,0.0842,0.0853,0.0954,0.0988,0.1068,0.1066,0.1049,0.1044,0.11,0.11,0.11,0.11,0.11,0,-0.033,-0.03,-0.021,-0.019,-0.0149,-0.0053,-0.0003,0.0075,0.0177,0.0241,0.0369,0.0421,0.0598,0.0684,0.0801,0.0931,0.0923,0.1077,0.1085,0.1018,0.1011,0.1082,0.108,0.11,0.11,0.11,0.11,0,-0.0419,-0.036,-0.0314,-0.0216,-0.0189,-0.0171,-0.0065,-0.0015,0.0067,0.0139,0.0165,0.0299,0.0385,0.0556,0.0717,0.0866,0.1,0.1055,0.0937,0.0935,0.1083,0.1077,0.1145,0.1146,0.1147,0.1147,0.1148,0,-0.0463,-0.0454,-0.0363,-0.0339,-0.0302,-0.0251,-0.0203,-0.0088,-0.0028,0.0065,0.0091,0.0175,0.0246,0.0463,0.072,0.0923,0.0952,0.1012,0.1082,0.1097,0.1097,0.109,0.1084,0.0993,0.0993,0.0992,0.0992,0,-0.0537,-0.0513,-0.0474,-0.0425,-0.0384,-0.0313,-0.0248,-0.0218,-0.0093,-0.0062,-0.0033,0.0003,0.0218,0.0424,0.0717,0.0832,0.0979,0.101,0.1056,0.1011,0.0959,0.0957,0.0955,0.0986,0.0987,0.0987,0.0987,0.0987,-0.0603,-0.0596,-0.0547,-0.0501,-0.0445,-0.0385,-0.0351,-0.0286,-0.0242,-0.0152,-0.0114,0.0031,0.0234,0.0677,0.0754,0.09,0.0982,0.1053,0.1052,0.1053,0.1056,0.1011,0.1043,0.1044,0.1045,0.1046,0.1046,0,-0.0674,-0.0648,-0.0614,-0.0545,-0.0501,-0.0448,-0.0368,-0.0338,-0.0326,-0.0164,-0.0112,0.0166,0.0403,0.0594,0.0845,0.0977,0.0933,0.0931,0.0869,0.0877,0.0883,0.0874,0.0814,0.0814,0.0813,0.0812,0,0,-0.0709,-0.0702,-0.0671,-0.0612,-0.0564,-0.051,-0.0479,-0.045,-0.0321,-0.0211,0.0015,0.0317,0.056,0.0703,0.0748,0.0792,0.0784,0.0751,0.0934,0.0856,0.0859,0.0959,0.0957,0,0,0,0,0]}],[{"header":{"parameterUnit":"m.s-1","parameterCategory":2,"la1":30.2991,"la2":30.254,"lo1":-89.0895,"lo2":-89.0444,"dy":0.0017,"dx":0.0017,"nx":28,"ny":28,"refTime":"2025-08-02T09:00:00:Z","depth":"4","parameterNumber":2,"parameterNumberName":"U-component_of_CURRENTS"},"data":[0,0,0,0,0,0,0,0,0,0,0,0,0,0,0,0,0,0,0,0,0,0,0,0,0,0,0,0,0,0,0,0,0,0,0,0,0,0,0,0,0,0,0,0,0,0,0,0,0,0,0,0,0,0,0,0,0,0,-0.1122,-0.1122,0,-0.1172,-0.1172,-0.1173,-0.1205,-0.1205,-0.1205,-0.1205,-0.1252,-0.1253,-0.1254,0,0,0,0,0,0,0,0,0,0,0,0,0,-0.1057,-0.1059,-0.1122,-0.1122,-0.1123,-0.1171,-0.1172,-0.1173,-0.1205,-0.1205,-0.1205,-0.1205,-0.1251,-0.1253,-0.1254,0,0,0,0,0,0,0,0,0,0,0,0,0,-0.1096,-0.1059,-0.1122,-0.1143,-0.1145,-0.1171,-0.1172,-0.1174,-0.1205,-0.1205,-0.1205,-0.1205,-0.1251,-0.1253,-0.1255,-0.1267,0,0,-0.126,-0.1261,0,0,0,0,0,0,0,0,-0.1094,-0.1099,-0.1139,-0.1141,-0.1144,-0.118,-0.1167,-0.1204,-0.1205,-0.1185,-0.1205,-0.1205,-0.1226,-0.123,-0.1243,-0.1269,-0.1271,-0.1261,-0.1262,-0.1263,-0.1263,0,0,0,0,0,0,0,-0.1091,-0.1097,-0.1144,-0.114,-0.1142,-0.115,-0.1156,-0.1174,-0.1207,-0.1187,-0.1188,-0.119,-0.1228,-0.1241,-0.1244,-0.1272,-0.1261,-0.1262,-0.1263,-0.1264,-0.1402,-0.1404,0,0,0,0,0,0,-0.1081,-0.1095,-0.1142,-0.1145,-0.1116,-0.1151,-0.1158,-0.117,-0.1207,-0.1212,-0.119,-0.1191,-0.1238,-0.1242,-0.1246,-0.1328,-0.1263,-0.1264,-0.1265,-0.1399,-0.1402,-0.1405,0,0,0,0,0,0,-0.1079,-0.1085,-0.114,-0.1118,-0.1126,-0.1152,-0.1166,-0.1171,-0.1197,-0.1209,-0.1214,-0.1211,-0.1238,-0.1243,-0.1273,-0.1328,-0.1265,-0.1267,-0.1396,-0.14,-0.1404,-0.1451,0,0,0,0,0,0,-0.1077,-0.1084,-0.11,-0.1118,-0.1126,-0.1153,-0.1166,-0.1172,-0.1196,-0.1199,-0.1229,-0.1232,-0.1238,-0.127,-0.1275,-0.1329,-0.1268,-0.1393,-0.1398,-0.1402,-0.1446,-0.1456,-0.1464,0,0,0,0,0,-0.1075,-0.1093,-0.11,-0.1106,-0.1144,-0.1153,-0.1159,-0.1178,-0.1197,-0.1204,-0.1232,-0.1232,-0.1305,-0.1273,-0.1278,-0.1334,-0.1391,-0.1397,-0.1402,-0.1442,-0.1454,-0.1464,0,0,0,0,0,0,-0.1064,-0.1098,-0.1107,-0.1132,-0.1139,-0.1158,-0.1174,-0.1187,-0.1217,-0.1231,-0.1245,-0.125,-0.1305,-0.1311,-0.1275,-0.1392,-0.1356,-0.1363,-0.1385,-0.1397,-0.1405,-0.1361,-0.127,0,0,0,0,0,-0.107,-0.1102,-0.1114,-0.1134,-0.1141,-0.1162,-0.1174,-0.1186,-0.1209,-0.1223,-0.1251,-0.1291,-0.1332,-0.1353,-0.1383,-0.1432,-0.1403,-0.148,-0.1489,-0.1496,-0.1467,-0.1474,-0.148,-0.1424,-0.1423,-0.1423,0,0,-0.1073,-0.1094,-0.1113,-0.1136,-0.1151,-0.1165,-0.1171,-0.1193,-0.1225,-0.1224,-0.1289,-0.1316,-0.1351,-0.1412,-0.144,-0.1423,-0.1503,-0.1503,-0.1509,-0.1475,-0.1481,-0.1485,-0.149,-0.1427,-0.1427,-0.1426,0,0,-0.1077,-0.1112,-0.1131,-0.1144,-0.1165,-0.118,-0.1187,-0.1218,-0.1254,-0.1309,-0.1328,-0.1353,-0.1445,-0.1451,-0.1475,-0.1543,-0.1547,-0.1608,-0.1618,-0.1628,-0.1631,-0.1634,-0.1614,-0.1614,-0.1616,-0.1617,-0.1617,0,-0.107,-0.1103,-0.1133,-0.1146,-0.1162,-0.1188,-0.1199,-0.1244,-0.1286,-0.1309,-0.134,-0.1437,-0.145,-0.1497,-0.1536,-0.1556,-0.1574,-0.1572,-0.1635,-0.1637,-0.1639,-0.1617,-0.1616,-0.162,-0.1619,-0.1619,-0.1619,0,-0.108,-0.1111,-0.1123,-0.1159,-0.1177,-0.1196,-0.1243,-0.128,-0.1339,-0.1374,-0.1448,-0.1475,-0.1518,-0.1559,-0.1574,-0.1617,-0.163,-0.164,-0.1596,-0.1646,-0.1622,-0.162,-0.1624,-0.1623,-0.1622,-0.1621,0,0,-0.1041,-0.1115,-0.1119,-0.1136,-0.1189,-0.1196,-0.1262,-0.1303,-0.1339,-0.1419,-0.1463,-0.1536,-0.1551,-0.1576,-0.1606,-0.1619,-0.1642,-0.1656,-0.1655,-0.1612,-0.1674,-0.1546,-0.1532,-0.17,-0.17,-0.17,-0.1654,0,-0.1031,-0.1063,-0.1108,-0.114,-0.1156,-0.1207,-0.1255,-0.1303,-0.1377,-0.1432,-0.1479,-0.154,-0.157,-0.1603,-0.1623,-0.1642,-0.1642,-0.1652,-0.165,-0.1647,-0.1509,-0.1526,-0.17,-0.1653,-0.1652,-0.1652,-0.1652,0,-0.1016,-0.1043,-0.1076,-0.1128,-0.1138,-0.1169,-0.1231,-0.1278,-0.136,-0.1413,-0.1476,-0.154,-0.1572,-0.1598,-0.1626,-0.1658,-0.1661,-0.1665,-0.1664,-0.1514,-0.1515,-0.1593,-0.1648,-0.1648,-0.1649,-0.1649,-0.1649,0,-0.0967,-0.1016,-0.1046,-0.1067,-0.1132,-0.116,-0.1194,-0.127,-0.1302,-0.1402,-0.1433,-0.1513,-0.1544,-0.1585,-0.1613,-0.1647,-0.163,-0.1663,-0.1534,-0.1525,-0.1631,-0.1629,-0.165,-0.165,-0.165,-0.165,-0.165,0,-0.0938,-0.0958,-0.1029,-0.105,-0.1071,-0.1127,-0.1165,-0.1213,-0.127,-0.1292,-0.1417,-0.1436,-0.1556,-0.1583,-0.1607,-0.155,-0.1619,-0.1506,-0.1498,-0.1657,-0.1658,-0.1629,-0.1628,-0.1648,-0.1649,-0.1649,-0.1649,0,-0.0884,-0.0938,-0.0971,-0.104,-0.1059,-0.1075,-0.1127,-0.1145,-0.1211,-0.1243,-0.1275,-0.1378,-0.14,-0.1475,-0.1511,-0.1501,-0.1478,-0.1435,-0.157,-0.1575,-0.137,-0.1372,-0.1285,-0.128,-0.1276,-0.1272,-0.1269,0,-0.0852,-0.0873,-0.0953,-0.0968,-0.1007,-0.1038,-0.1053,-0.1111,-0.1124,-0.1185,-0.118,-0.1237,-0.13,-0.1229,-0.1323,-0.1326,-0.1322,-0.1319,-0.1362,-0.1328,-0.133,-0.1339,-0.1346,-0.1262,-0.1261,-0.126,-0.1259,0,-0.0791,-0.0842,-0.0878,-0.0912,-0.0941,-0.0953,-0.0981,-0.097,-0.1027,-0.1088,-0.1056,-0.1082,-0.1083,-0.1127,-0.1132,-0.1144,-0.1338,-0.1275,-0.1285,-0.1325,-0.13,-0.1308,-0.132,-0.1244,-0.1246,-0.1248,-0.1249,0,-0.0748,-0.0758,-0.0817,-0.0837,-0.0862,-0.0857,-0.089,-0.0879,-0.0883,-0.0946,-0.0922,-0.0975,-0.1039,-0.1025,-0.103,-0.103,-0.1033,-0.1048,-0.107,-0.1088,-0.1051,-0.0992,-0.0808,0,0,0,0,0,-0.0688,-0.0701,-0.0722,-0.0747,-0.0769,-0.0782,-0.0824,-0.0857,-0.091,-0.0846,-0.0874,-0.0864,-0.0865,-0.0895,-0.0856,-0.0968,-0.1059,-0.0926,-0.1093,-0.1162,-0.1179,-0.1159,0,0,0,0,0,0,-0.0655,-0.068,-0.0698,-0.066,-0.0653,-0.0665,-0.0694,-0.0743,-0.0707,-0.0764,-0.0754,-0.0805,-0.0809,-0.0848,-0.0828,-0.0841,-0.0933,-0.0954,-0.0952,-0.1152,-0.1168,-0.1182,-0.1167,0,0,0,0,0]},{"header":{"parameterUnit":"m.s-1","parameterCategory":2,"la1":30.2991,"la2":30.254,"lo1":-89.0895,"lo2":-89.0444,"dy":0.0017,"dx":0.0017,"nx":28,"ny":28,"refTime":"2025-08-02T09:00:00:Z","depth":"4","parameterNumber":3,"parameterNumberName":"V-component_of_CURRENTS"},"data":[0,0,0,0,0,0,0,0,0,0,0,0,0,0,0,0,0,0,0,0,0,0,0,0,0,0,0,0,0,0,0,0,0,0,0,0,0,0,0,0,0,0,0,0,0,0,0,0,0,0,0,0,0,0,0,0,0,0,-0.0314,-0.0314,0,-0.0328,-0.0328,-0.0328,-0.0284,-0.0283,-0.0282,-0.0281,-0.0266,-0.0267,-0.0267,0,0,0,0,0,0,0,0,0,0,0,0,0,-0.0291,-0.0291,-0.0314,-0.0314,-0.0315,-0.0328,-0.0328,-0.0328,-0.0284,-0.0283,-0.0281,-0.028,-0.0266,-0.0267,-0.0267,0,0,0,0,0,0,0,0,0,0,0,0,0,-0.03,-0.0291,-0.0314,-0.0296,-0.0295,-0.0328,-0.0328,-0.0328,-0.0284,-0.0283,-0.0281,-0.0279,-0.0266,-0.0267,-0.0268,-0.0306,0,0,-0.027,-0.0271,0,0,0,0,0,0,0,0,-0.0299,-0.03,-0.0298,-0.0298,-0.0296,-0.0305,-0.0315,-0.032,-0.0285,-0.0285,-0.0281,-0.0279,-0.028,-0.0279,-0.0282,-0.0305,-0.0305,-0.0271,-0.0271,-0.0272,-0.0272,0,0,0,0,0,0,0,-0.0299,-0.03,-0.0316,-0.0299,-0.0298,-0.0303,-0.0302,-0.0316,-0.0289,-0.0285,-0.0283,-0.029,-0.0278,-0.0281,-0.0281,-0.0304,-0.0271,-0.0271,-0.0272,-0.0272,-0.0334,-0.0335,0,0,0,0,0,0,-0.0303,-0.0299,-0.0316,-0.0317,-0.0297,-0.0305,-0.0303,-0.0302,-0.0289,-0.0287,-0.0291,-0.0287,-0.028,-0.028,-0.0281,-0.0312,-0.0272,-0.0272,-0.0273,-0.0333,-0.0334,-0.0335,0,0,0,0,0,0,-0.0302,-0.0304,-0.0315,-0.0311,-0.0313,-0.0307,-0.0305,-0.0303,-0.0305,-0.0294,-0.029,-0.0295,-0.0279,-0.0279,-0.0303,-0.0311,-0.0273,-0.0274,-0.0332,-0.0333,-0.0335,-0.0383,0,0,0,0,0,0,-0.0301,-0.0303,-0.0309,-0.0311,-0.0314,-0.0346,-0.0307,-0.0304,-0.0313,-0.0308,-0.0298,-0.0294,-0.0278,-0.0302,-0.0304,-0.0312,-0.0274,-0.033,-0.0332,-0.0334,-0.0381,-0.0387,-0.0392,0,0,0,0,0,-0.03,-0.0318,-0.0308,-0.0311,-0.0319,-0.0348,-0.0351,-0.0338,-0.0315,-0.033,-0.0321,-0.0294,-0.0315,-0.0305,-0.0307,-0.0315,-0.0329,-0.0332,-0.0334,-0.0378,-0.0385,-0.0392,0,0,0,0,0,0,-0.0313,-0.0315,-0.0305,-0.0322,-0.0338,-0.0342,-0.0358,-0.0347,-0.0352,-0.0344,-0.0322,-0.032,-0.0338,-0.0329,-0.0318,-0.0338,-0.0313,-0.0316,-0.0346,-0.0353,-0.0358,-0.0352,-0.0275,0,0,0,0,0,-0.032,-0.0329,-0.0337,-0.0353,-0.0362,-0.0361,-0.0371,-0.0365,-0.0369,-0.0368,-0.0362,-0.0353,-0.0352,-0.0355,-0.0356,-0.0382,-0.0313,-0.0385,-0.039,-0.0395,-0.0392,-0.0282,-0.0275,-0.0343,-0.0343,-0.0343,0,0,-0.0331,-0.0333,-0.0339,-0.0357,-0.0364,-0.0387,-0.0362,-0.0385,-0.0392,-0.0369,-0.0382,-0.0379,-0.0365,-0.0383,-0.0389,-0.0376,-0.0343,-0.0398,-0.0402,-0.0396,-0.0283,-0.0276,-0.0269,-0.0345,-0.0345,-0.0344,0,0,-0.0363,-0.0359,-0.038,-0.0394,-0.0414,-0.0416,-0.0425,-0.0437,-0.0428,-0.0453,-0.0426,-0.0436,-0.0442,-0.0432,-0.0425,-0.0469,-0.0376,-0.0463,-0.0487,-0.038,-0.0373,-0.0365,-0.0275,-0.0259,-0.0465,-0.0465,-0.0465,0,-0.0376,-0.0394,-0.0396,-0.042,-0.0433,-0.0429,-0.0457,-0.0457,-0.0473,-0.0467,-0.0462,-0.0461,-0.0462,-0.0461,-0.0477,-0.048,-0.0397,-0.0461,-0.0383,-0.0374,-0.0366,-0.0275,-0.0257,-0.0468,-0.0467,-0.0467,-0.0467,0,-0.0421,-0.0436,-0.0454,-0.0473,-0.0493,-0.052,-0.0521,-0.0531,-0.0523,-0.0514,-0.0518,-0.0521,-0.0512,-0.0518,-0.0514,-0.0468,-0.0422,-0.0399,-0.0359,-0.0361,-0.0267,-0.0247,-0.0472,-0.0471,-0.047,-0.0469,0,0,-0.044,-0.0477,-0.0482,-0.0495,-0.052,-0.0541,-0.0554,-0.0564,-0.0564,-0.0565,-0.0557,-0.057,-0.0557,-0.055,-0.0541,-0.0471,-0.0359,-0.0412,-0.0405,-0.0311,-0.0107,-0.014,-0.0121,-0.0296,-0.0293,-0.029,-0.0067,0,-0.0471,-0.052,-0.0532,-0.0575,-0.0597,-0.0596,-0.0614,-0.0617,-0.0609,-0.0603,-0.0577,-0.0575,-0.0568,-0.057,-0.0497,-0.0392,-0.0306,-0.0421,-0.0131,-0.0123,-0.014,-0.0099,-0.028,-0.0052,-0.0047,-0.0044,-0.0041,0,-0.0504,-0.053,-0.0581,-0.0614,-0.0626,-0.0654,-0.0668,-0.0684,-0.0664,-0.0655,-0.0631,-0.06,-0.0535,-0.0521,-0.0309,-0.0368,-0.0243,-0.0154,-0.0142,-0.014,-0.0118,-0.0048,-0.0004,-0.0006,-0.0009,-0.0012,-0.0014,0,-0.0511,-0.0559,-0.0599,-0.0612,-0.0655,-0.0673,-0.0696,-0.0699,-0.0706,-0.068,-0.067,-0.0582,-0.0536,-0.0361,-0.0205,-0.0222,0.0054,0.0058,0.0149,0.0148,0.0134,0.0124,0.0237,0.0236,0.0236,0.0235,0.0235,0,-0.0531,-0.0563,-0.0606,-0.0629,-0.0673,-0.0696,-0.0733,-0.0743,-0.0745,-0.0736,-0.0697,-0.0654,-0.0481,-0.0322,-0.0167,0.0051,0.0102,0.0161,0.0212,0.0104,0.0088,0.0149,0.0136,0.0244,0.0242,0.024,0.0239,0,-0.0538,-0.0569,-0.0615,-0.0664,-0.0681,-0.0715,-0.0762,-0.0776,-0.0784,-0.0765,-0.0751,-0.0658,-0.0448,-0.0276,0.0008,0.0091,0.0301,0.0366,0.0235,0.0272,0.0319,0.03,0.0509,0.051,0.0511,0.0511,0.0512,0,-0.0551,-0.0575,-0.0636,-0.0665,-0.0694,-0.0739,-0.0766,-0.0792,-0.0795,-0.0752,-0.0727,-0.0564,-0.0472,-0.0087,0.0069,0.0365,0.0382,0.0475,0.0389,0.0323,0.0351,0.0331,0.0312,0.0513,0.0513,0.0514,0.0514,0,-0.0568,-0.0591,-0.0629,-0.0684,-0.0722,-0.0758,-0.079,-0.0787,-0.0789,-0.0789,-0.0649,-0.0499,-0.0283,-0.0049,0.0159,0.0362,0.0403,0.0484,0.0483,0.0402,0.033,0.0353,0.0334,0.0516,0.0516,0.0516,0.0516,0,-0.0577,-0.0605,-0.0651,-0.0695,-0.0744,-0.0764,-0.0779,-0.0743,-0.0736,-0.0676,-0.0609,-0.0415,-0.0298,-0.0047,0.0157,0.0332,0.0363,0.0392,0.0396,0.0395,0.0258,0.0142,0.0336,0,0,0,0,0,-0.0576,-0.0607,-0.0656,-0.071,-0.0754,-0.0778,-0.0789,-0.0791,-0.0768,-0.0651,-0.063,-0.0419,-0.0146,-0.0039,0.0145,0.0137,0.0361,0.0348,0.0388,0.0531,0.0528,0.0378,0,0,0,0,0,0,-0.058,-0.0627,-0.0653,-0.0706,-0.074,-0.0783,-0.0785,-0.0768,-0.0693,-0.0642,-0.0473,-0.0408,-0.0123,-0.0232,0.0142,0.0186,0.0226,0.0475,0.0477,0.0532,0.053,0.0527,0.0372,0,0,0,0,0]}]]